Peotone Weather
Station Historical Data
 
Daily Summary for July 28, 2016 Units:  English    Metric   Both
« Previous Day
Next Day »
Daily Weekly Monthly Yearly Custom
  Current: High: Low: Average:
Temperature: 84.0 °F 87.8 °F 67.9 °F 75.1 °F
Dew Point: 71.4 °F 74.1 °F 66.1 °F 69.2 °F
Humidity: 66% 95% 58% 83%
Wind Speed: 6.9mph 11.5mph 0.0mph 1.6mph
Wind Gust: 32.2mph 32.2mph - -
WindNNW - - SSE
Pressure: 29.86 in 29.91 in 29.83 in -
Precipitation: 0.00 in      
Historical Graphs
 
 
Tabular Data for July 28, 2016
Time Temperature Dew Point Pressure Wind Wind Speed Wind Gust Humidity Rainfall Rate (Hourly) solar Conditions
00:00 70.7 °F 67.6 °F 29.91 in Calm   1.1 mph 90% 0.00 in 0.00 W/m2
00:03 70.7 °F 67.6 °F 29.91 in Calm   1.1 mph 90% 0.00 in 0.00 W/m2
00:08 70.5 °F 67.4 °F 29.91 in Calm     90% 0.00 in 0.00 W/m2
00:10 70.4 °F 67.3 °F 29.91 in Calm     90% 0.00 in 0.00 W/m2
00:13 70.4 °F 67.7 °F 29.90 in Calm     91% 0.00 in 0.00 W/m2
00:15 70.4 °F 67.3 °F 29.90 in Calm     90% 0.00 in 0.00 W/m2
00:18 70.4 °F 67.3 °F 29.90 in Calm     90% 0.00 in 0.00 W/m2
00:20 70.3 °F 67.2 °F 29.90 in Calm     90% 0.00 in 0.00 W/m2
00:23 70.1 °F 67.0 °F 29.90 in Calm     90% 0.00 in 0.00 W/m2
00:25 70.1 °F 67.4 °F 29.90 in Calm     91% 0.00 in 0.00 W/m2
00:28 70.1 °F 67.4 °F 29.90 in Calm   1.1 mph 91% 0.00 in 0.00 W/m2
00:30 70.0 °F 67.3 °F 29.90 in Calm   1.1 mph 91% 0.00 in 0.00 W/m2
00:33 70.0 °F 67.3 °F 29.89 in SSW 1.1 mph 1.1 mph 91% 0.00 in 0.00 W/m2
00:35 70.0 °F 67.3 °F 29.89 in Calm   1.1 mph 91% 0.00 in 0.00 W/m2
00:38 70.0 °F 67.3 °F 29.89 in Calm   1.1 mph 91% 0.00 in 0.00 W/m2
00:40 69.9 °F 67.2 °F 29.89 in Calm   1.1 mph 91% 0.00 in 0.00 W/m2
00:43 69.9 °F 67.2 °F 29.90 in Calm     91% 0.00 in 0.00 W/m2
00:45 69.9 °F 67.2 °F 29.90 in Calm     91% 0.00 in 0.00 W/m2
00:48 69.9 °F 67.2 °F 29.89 in Calm     91% 0.00 in 0.00 W/m2
00:50 69.8 °F 67.1 °F 29.89 in Calm     91% 0.00 in 0.00 W/m2
00:53 69.7 °F 67.0 °F 29.89 in Calm     91% 0.00 in 0.00 W/m2
00:55 69.7 °F 67.0 °F 29.89 in Calm     91% 0.00 in 0.00 W/m2
00:58 69.6 °F 66.9 °F 29.89 in Calm     91% 0.00 in 0.00 W/m2
01:00 69.7 °F 67.3 °F 29.89 in Calm     92% 0.00 in 0.00 W/m2
01:03 69.7 °F 67.0 °F 29.89 in Calm     91% 0.00 in 0.00 W/m2
01:05 69.6 °F 66.9 °F 29.89 in Calm     91% 0.00 in 0.00 W/m2
01:09 69.4 °F 67.0 °F 29.89 in Calm     92% 0.00 in 0.00 W/m2
01:10 69.3 °F 66.9 °F 29.89 in Calm     92% 0.00 in 0.00 W/m2
01:14 69.3 °F 66.9 °F 29.89 in Calm     92% 0.00 in 0.00 W/m2
01:15 69.4 °F 67.0 °F 29.90 in Calm     92% 0.00 in 0.00 W/m2
01:19 69.4 °F 67.0 °F 29.90 in Calm     92% 0.00 in 0.00 W/m2
01:24 69.4 °F 67.0 °F 29.90 in Calm     92% 0.00 in 0.00 W/m2
01:25 69.4 °F 67.0 °F 29.90 in Calm     92% 0.00 in 0.00 W/m2
01:29 69.3 °F 66.9 °F 29.89 in Calm     92% 0.00 in 0.00 W/m2
01:30 69.2 °F 66.8 °F 29.89 in Calm     92% 0.00 in 0.00 W/m2
01:34 69.2 °F 66.8 °F 29.89 in Calm     92% 0.00 in 0.00 W/m2
01:35 69.2 °F 66.8 °F 29.89 in Calm     92% 0.00 in 0.00 W/m2
01:39 69.1 °F 66.7 °F 29.89 in Calm     92% 0.00 in 0.00 W/m2
01:40 69.0 °F 66.6 °F 29.89 in Calm     92% 0.00 in 0.00 W/m2
01:44 69.0 °F 66.6 °F 29.89 in Calm     92% 0.00 in 0.00 W/m2
01:45 69.0 °F 66.6 °F 29.89 in Calm     92% 0.00 in 0.00 W/m2
01:49 69.1 °F 66.7 °F 29.89 in Calm     92% 0.00 in 0.00 W/m2
01:50 69.0 °F 66.6 °F 29.89 in Calm     92% 0.00 in 0.00 W/m2
01:54 68.9 °F 66.5 °F 29.89 in Calm     92% 0.00 in 0.00 W/m2
01:55 68.9 °F 66.5 °F 29.89 in Calm     92% 0.00 in 0.00 W/m2
01:59 68.9 °F 66.8 °F 29.88 in Calm     93% 0.00 in 0.00 W/m2
02:00 68.9 °F 66.8 °F 29.88 in Calm     93% 0.00 in 0.00 W/m2
02:04 69.0 °F 66.6 °F 29.88 in Calm     92% 0.00 in 0.00 W/m2
02:05 69.1 °F 66.7 °F 29.88 in Calm     92% 0.00 in 0.00 W/m2
02:09 69.0 °F 66.6 °F 29.88 in Calm     92% 0.00 in 0.00 W/m2
02:10 69.0 °F 66.6 °F 29.88 in Calm     92% 0.00 in 0.00 W/m2
02:15 69.0 °F 66.6 °F 29.88 in Calm     92% 0.00 in 0.00 W/m2
02:20 69.0 °F 66.9 °F 29.88 in Calm     93% 0.00 in 0.00 W/m2
02:25 69.0 °F 66.9 °F 29.88 in Calm     93% 0.00 in 0.00 W/m2
02:30 69.0 °F 66.9 °F 29.88 in Calm     93% 0.00 in 0.00 W/m2
02:35 69.0 °F 66.6 °F 29.88 in Calm     92% 0.00 in 0.00 W/m2
02:40 68.9 °F 66.5 °F 29.88 in Calm     92% 0.00 in 0.00 W/m2
02:45 69.0 °F 66.6 °F 29.88 in Calm     92% 0.00 in 0.00 W/m2
02:50 68.8 °F 66.7 °F 29.87 in Calm     93% 0.00 in 0.00 W/m2
02:55 68.8 °F 66.7 °F 29.87 in Calm     93% 0.00 in 0.00 W/m2
03:04 68.9 °F 66.8 °F 29.87 in Calm     93% 0.00 in 0.00 W/m2
03:09 69.0 °F 66.9 °F 29.87 in Calm     93% 0.00 in 0.00 W/m2
03:14 69.0 °F 66.9 °F 29.87 in Calm     93% 0.00 in 0.00 W/m2
03:19 69.1 °F 67.0 °F 29.87 in Calm     93% 0.00 in 0.00 W/m2
03:24 69.0 °F 66.6 °F 29.86 in Calm     92% 0.00 in 0.00 W/m2
03:30 69.0 °F 66.9 °F 29.86 in Calm     93% 0.00 in 0.00 W/m2
03:35 69.0 °F 66.9 °F 29.86 in Calm     93% 0.00 in 0.00 W/m2
03:40 69.0 °F 66.9 °F 29.86 in Calm     93% 0.00 in 0.00 W/m2
03:45 68.8 °F 66.7 °F 29.86 in Calm     93% 0.00 in 0.00 W/m2
03:50 68.6 °F 66.5 °F 29.86 in Calm     93% 0.00 in 0.00 W/m2
03:55 68.7 °F 66.6 °F 29.86 in Calm     93% 0.00 in 0.00 W/m2
04:00 68.4 °F 66.3 °F 29.86 in Calm     93% 0.00 in 0.00 W/m2
04:05 68.3 °F 66.2 °F 29.86 in Calm     93% 0.00 in 0.00 W/m2
04:10 68.1 °F 66.3 °F 29.86 in Calm     94% 0.00 in 0.00 W/m2
04:15 68.0 °F 66.2 °F 29.86 in Calm     94% 0.00 in 0.00 W/m2
04:20 67.9 °F 66.1 °F 29.86 in Calm     94% 0.00 in 0.00 W/m2
04:25 68.0 °F 66.2 °F 29.86 in Calm     94% 0.00 in 0.00 W/m2
04:30 68.0 °F 66.2 °F 29.86 in Calm     94% 0.00 in 0.00 W/m2
04:35 68.0 °F 66.2 °F 29.85 in Calm     94% 0.00 in 0.00 W/m2
04:40 68.1 °F 66.3 °F 29.86 in Calm     94% 0.00 in 0.00 W/m2
04:45 68.0 °F 66.2 °F 29.86 in Calm     94% 0.00 in 0.00 W/m2
04:50 68.0 °F 66.2 °F 29.85 in Calm     94% 0.00 in 0.00 W/m2
04:56 68.0 °F 66.2 °F 29.85 in Calm     94% 0.00 in 0.00 W/m2
05:01 68.1 °F 66.3 °F 29.85 in Calm     94% 0.00 in 0.00 W/m2
05:06 68.0 °F 66.2 °F 29.86 in Calm     94% 0.00 in 0.00 W/m2
05:11 68.0 °F 66.2 °F 29.86 in Calm     94% 0.00 in 0.00 W/m2
05:16 68.0 °F 66.2 °F 29.86 in Calm     94% 0.00 in 0.00 W/m2
05:21 68.1 °F 66.3 °F 29.86 in Calm     94% 0.00 in 0.00 W/m2
05:26 68.3 °F 66.5 °F 29.86 in Calm     94% 0.00 in 0.00 W/m2
05:31 68.4 °F 66.6 °F 29.86 in Calm     94% 0.00 in 0.00 W/m2
05:36 68.5 °F 66.7 °F 29.86 in Calm     94% 0.00 in 0.00 W/m2
05:41 68.5 °F 66.7 °F 29.86 in Calm     94% 0.00 in 0.00 W/m2
05:46 68.5 °F 66.4 °F 29.86 in Calm     93% 0.00 in 0.00 W/m2
05:51 68.5 °F 66.4 °F 29.86 in Calm     93% 0.00 in 5.00 W/m2
05:57 68.3 °F 66.5 °F 29.87 in Calm     94% 0.00 in 7.00 W/m2
06:02 68.4 °F 66.6 °F 29.87 in Calm     94% 0.00 in 11.00 W/m2
06:07 68.4 °F 66.6 °F 29.87 in Calm     94% 0.00 in 12.00 W/m2
06:12 68.5 °F 66.7 °F 29.87 in Calm     94% 0.00 in 16.00 W/m2
06:22 68.6 °F 66.8 °F 29.87 in Calm     94% 0.00 in 42.00 W/m2
06:27 68.9 °F 67.4 °F 29.87 in Calm     95% 0.00 in 37.00 W/m2
06:32 69.2 °F 67.4 °F 29.87 in Calm     94% 0.00 in 40.00 W/m2
06:37 69.4 °F 67.3 °F 29.87 in Calm     93% 0.00 in 46.00 W/m2
06:42 69.6 °F 67.5 °F 29.87 in Calm     93% 0.00 in 47.00 W/m2
06:47 69.6 °F 66.9 °F 29.87 in Calm     91% 0.00 in 53.00 W/m2
06:53 69.6 °F 66.9 °F 29.88 in Calm   1.1 mph 91% 0.00 in 65.00 W/m2
06:58 69.6 °F 67.2 °F 29.88 in ESE 2.3 mph 5.8 mph 92% 0.00 in 70.00 W/m2
07:03 69.7 °F 67.0 °F 29.88 in ESE 2.3 mph 4.6 mph 91% 0.00 in 72.00 W/m2
07:08 69.6 °F 67.2 °F 29.88 in Calm     92% 0.00 in 79.00 W/m2
07:13 69.7 °F 67.3 °F 29.88 in ESE 2.3 mph 2.3 mph 92% 0.00 in 86.00 W/m2
07:18 69.9 °F 67.5 °F 29.89 in ESE 3.4 mph 4.6 mph 92% 0.00 in 90.00 W/m2
07:23 70.0 °F 67.6 °F 29.89 in Calm   2.3 mph 92% 0.00 in 91.00 W/m2
07:28 70.1 °F 67.7 °F 29.89 in ESE 1.1 mph 3.4 mph 92% 0.00 in 97.00 W/m2
07:33 70.3 °F 67.9 °F 29.89 in ESE 1.1 mph 3.4 mph 92% 0.00 in 98.00 W/m2
07:38 70.6 °F 68.2 °F 29.89 in ESE 1.1 mph 2.3 mph 92% 0.00 in 113.00 W/m2
07:43 70.8 °F 68.1 °F 29.89 in ESE 3.4 mph 4.6 mph 91% 0.00 in 123.00 W/m2
07:48 71.1 °F 68.3 °F 29.88 in ESE 1.1 mph 2.3 mph 91% 0.00 in 137.00 W/m2
07:53 71.5 °F 68.7 °F 29.89 in Calm   1.1 mph 91% 0.00 in 148.00 W/m2
07:58 71.9 °F 69.1 °F 29.88 in ESE 2.3 mph 4.6 mph 91% 0.00 in 162.00 W/m2
08:04 72.0 °F 68.9 °F 29.88 in ESE 4.6 mph 4.6 mph 90% 0.00 in 160.00 W/m2
08:09 72.1 °F 69.0 °F 29.88 in ESE 3.4 mph 3.4 mph 90% 0.00 in 155.00 W/m2
08:14 72.1 °F 69.0 °F 29.88 in Calm   2.3 mph 90% 0.00 in 134.00 W/m2
08:19 72.2 °F 69.4 °F 29.88 in Calm     91% 0.00 in 125.00 W/m2
08:24 72.3 °F 69.2 °F 29.88 in Calm     90% 0.00 in 116.00 W/m2
08:29 72.5 °F 69.4 °F 29.88 in Calm   1.1 mph 90% 0.00 in 185.00 W/m2
08:34 72.8 °F 69.4 °F 29.89 in Calm     89% 0.00 in 385.00 W/m2
08:39 73.7 °F 69.9 °F 29.89 in Calm     88% 0.00 in 239.00 W/m2
08:44 74.6 °F 70.8 °F 29.89 in Calm     88% 0.00 in 529.00 W/m2
08:49 75.6 °F 71.5 °F 29.88 in Calm     87% 0.00 in 454.00 W/m2
08:54 76.3 °F 71.1 °F 29.88 in Calm     84% 0.00 in 295.00 W/m2
08:59 76.4 °F 71.6 °F 29.88 in Calm     85% 0.00 in 294.00 W/m2
09:04 76.3 °F 71.5 °F 29.88 in Calm     85% 0.00 in 257.00 W/m2
09:10 76.2 °F 71.7 °F 29.88 in Calm     86% 0.00 in 260.00 W/m2
09:15 76.4 °F 71.9 °F 29.88 in Calm     86% 0.00 in 255.00 W/m2
09:20 76.4 °F 71.9 °F 29.88 in Calm     86% 0.00 in 227.00 W/m2
09:25 76.6 °F 71.4 °F 29.88 in ESE 3.4 mph 4.6 mph 84% 0.00 in 276.00 W/m2
09:30 76.9 °F 72.4 °F 29.88 in Calm   2.3 mph 86% 0.00 in 292.00 W/m2
09:35 77.1 °F 72.2 °F 29.88 in Calm     85% 0.00 in 255.00 W/m2
09:40 77.2 °F 72.0 °F 29.87 in ESE 2.3 mph 3.4 mph 84% 0.00 in 251.00 W/m2
09:45 77.2 °F 71.3 °F 29.87 in Calm   4.6 mph 82% 0.00 in 236.00 W/m2
09:50 77.3 °F 72.1 °F 29.87 in Calm     84% 0.00 in 327.00 W/m2
09:55 77.4 °F 72.5 °F 29.87 in Calm   3.4 mph 85% 0.00 in 431.00 W/m2
10:00 77.6 °F 72.4 °F 29.87 in Calm   3.4 mph 84% 0.00 in 362.00 W/m2
10:05 77.8 °F 72.2 °F 29.87 in ESE 1.1 mph 2.3 mph 83% 0.00 in 497.00 W/m2
10:10 78.6 °F 73.0 °F 29.87 in Calm   3.4 mph 83% 0.00 in 717.00 W/m2
10:15 79.2 °F 72.9 °F 29.87 in ESE 1.1 mph 4.6 mph 81% 0.00 in 663.00 W/m2
10:20 79.8 °F 73.4 °F 29.87 in ESE 1.1 mph 3.4 mph 81% 0.00 in 773.00 W/m2
10:26 80.6 °F 73.1 °F 29.87 in Calm   6.9 mph 78% 0.00 in 594.00 W/m2
10:31 80.6 °F 73.9 °F 29.87 in SE 1.1 mph 2.3 mph 80% 0.00 in 772.00 W/m2
10:36 80.9 °F 73.4 °F 29.87 in SE 4.6 mph 4.6 mph 78% 0.00 in 788.00 W/m2
10:41 80.9 °F 72.2 °F 29.87 in Calm     75% 0.00 in 803.00 W/m2
10:46 81.4 °F 73.5 °F 29.87 in SE 2.3 mph 2.3 mph 77% 0.00 in 802.00 W/m2
10:51 82.2 °F 72.3 °F 29.87 in ESE 5.8 mph 5.8 mph 72% 0.00 in 812.00 W/m2
10:56 82.7 °F 72.8 °F 29.87 in ESE 5.8 mph 5.8 mph 72% 0.00 in 819.00 W/m2
11:01 82.8 °F 72.4 °F 29.87 in ESE 2.3 mph 3.4 mph 71% 0.00 in 833.00 W/m2
11:06 82.7 °F 71.9 °F 29.87 in SE 3.4 mph 5.8 mph 70% 0.00 in 830.00 W/m2
11:11 83.0 °F 72.6 °F 29.87 in South 2.3 mph 2.3 mph 71% 0.00 in 846.00 W/m2
11:16 82.8 °F 72.0 °F 29.87 in Calm   1.1 mph 70% 0.00 in 867.00 W/m2
11:21 83.6 °F 73.6 °F 29.87 in SSE 4.6 mph 6.9 mph 72% 0.00 in 867.00 W/m2
11:26 84.5 °F 74.1 °F 29.86 in South 4.6 mph 5.8 mph 71% 0.00 in 891.00 W/m2
11:31 84.7 °F 71.6 °F 29.86 in ESE 8.1 mph 8.1 mph 65% 0.00 in 872.00 W/m2
11:36 83.6 °F 74.0 °F 29.86 in SSW 4.6 mph 6.9 mph 73% 0.00 in 925.00 W/m2
11:41 84.3 °F 72.6 °F 29.86 in South 8.1 mph 10.3 mph 68% 0.00 in 930.00 W/m2
11:46 84.3 °F 72.6 °F 29.86 in South 3.4 mph 4.6 mph 68% 0.00 in 935.00 W/m2
11:52 84.6 °F 72.0 °F 29.86 in South 8.1 mph 10.3 mph 66% 0.00 in 958.00 W/m2
11:57 85.0 °F 72.4 °F 29.86 in South 4.6 mph 8.1 mph 66% 0.00 in 921.00 W/m2
12:02 85.0 °F 70.5 °F 29.85 in SSE 2.3 mph 5.8 mph 62% 0.00 in 933.00 W/m2
12:07 85.4 °F 71.8 °F 29.85 in ESE 4.6 mph 5.8 mph 64% 0.00 in 963.00 W/m2
12:12 84.8 °F 71.3 °F 29.85 in South 3.4 mph 9.2 mph 64% 0.00 in 216.00 W/m2
12:17 84.1 °F 71.5 °F 29.85 in South 4.6 mph 8.1 mph 66% 0.00 in 923.00 W/m2
12:22 85.3 °F 72.2 °F 29.85 in South 3.4 mph 8.1 mph 65% 0.00 in 946.00 W/m2
12:27 84.1 °F 70.2 °F 29.85 in SW 8.1 mph 8.1 mph 63% 0.00 in 960.00 W/m2
12:32 85.3 °F 71.3 °F 29.85 in SE 3.4 mph 9.2 mph 63% 0.00 in 962.00 W/m2
12:37 86.0 °F 71.9 °F 29.85 in South 9.2 mph 10.3 mph 63% 0.00 in 954.00 W/m2
12:42 85.7 °F 71.2 °F 29.85 in SW 1.1 mph 5.8 mph 62% 0.00 in 951.00 W/m2
12:48 85.6 °F 71.6 °F 29.84 in SSE 2.3 mph 3.4 mph 63% 0.00 in 967.00 W/m2
12:53 84.6 °F 71.1 °F 29.84 in SE 2.3 mph 4.6 mph 64% 0.00 in 977.00 W/m2
12:58 85.4 °F 72.3 °F 29.84 in SSE 3.4 mph 6.9 mph 65% 0.00 in 967.00 W/m2
13:03 85.3 °F 72.2 °F 29.84 in South 1.1 mph 5.8 mph 65% 0.00 in 146.00 W/m2
13:08 85.3 °F 73.6 °F 29.84 in South 5.8 mph 6.9 mph 68% 0.00 in 960.00 W/m2
13:13 85.9 °F 73.2 °F 29.84 in South 5.8 mph 8.1 mph 66% 0.00 in 990.00 W/m2
13:18 86.6 °F 71.6 °F 29.83 in South 5.8 mph 10.3 mph 61% 0.00 in 951.00 W/m2
13:23 86.7 °F 73.1 °F 29.84 in Calm   9.2 mph 64% 0.00 in 944.00 W/m2
13:28 86.7 °F 73.5 °F 29.84 in SSE 8.1 mph 10.3 mph 65% 0.00 in 939.00 W/m2
13:33 86.8 °F 73.2 °F 29.83 in SW 9.2 mph 9.2 mph 64% 0.00 in 921.00 W/m2
13:38 86.5 °F 73.3 °F 29.83 in SSE 3.4 mph 8.1 mph 65% 0.00 in 918.00 W/m2
13:43 86.6 °F 72.5 °F 29.83 in WSW 4.6 mph 10.3 mph 63% 0.00 in 923.00 W/m2
13:48 86.2 °F 72.1 °F 29.83 in South 9.2 mph 9.2 mph 63% 0.00 in 925.00 W/m2
13:54 86.9 °F 73.3 °F 29.83 in SSE 10.3 mph 10.3 mph 64% 0.00 in 946.00 W/m2
13:59 86.5 °F 72.4 °F 29.83 in SE 2.3 mph 8.1 mph 63% 0.00 in 930.00 W/m2
14:04 86.2 °F 73.1 °F 29.83 in South 4.6 mph 6.9 mph 65% 0.00 in 237.00 W/m2
14:09 86.9 °F 72.8 °F 29.83 in SSE 4.6 mph 8.1 mph 63% 0.00 in 932.00 W/m2
14:14 87.5 °F 72.9 °F 29.83 in SSE 5.8 mph 6.9 mph 62% 0.00 in 937.00 W/m2
14:19 87.4 °F 72.8 °F 29.83 in South 5.8 mph 8.1 mph 62% 0.00 in 937.00 W/m2
14:24 87.3 °F 71.2 °F 29.83 in SSE 3.4 mph 9.2 mph 59% 0.00 in 907.00 W/m2
14:29 87.5 °F 70.9 °F 29.83 in South 6.9 mph 6.9 mph 58% 0.00 in 898.00 W/m2
14:34 87.4 °F 71.8 °F 29.83 in SSE 4.6 mph 8.1 mph 60% 0.00 in 919.00 W/m2
14:39 87.5 °F 71.9 °F 29.83 in South 11.5 mph 11.5 mph 60% 0.00 in 944.00 W/m2
14:44 86.9 °F 71.3 °F 29.83 in SSW 6.9 mph 9.2 mph 60% 0.00 in 888.00 W/m2
14:49 87.8 °F 72.2 °F 29.83 in SSE 4.6 mph 6.9 mph 60% 0.00 in 863.00 W/m2
14:54 86.8 °F 71.8 °F 29.84 in South 2.3 mph 10.3 mph 61% 0.00 in 165.00 W/m2
14:59 86.0 °F 71.0 °F 29.83 in WSW 2.3 mph 6.9 mph 61% 0.00 in 183.00 W/m2
15:04 85.8 °F 71.3 °F 29.83 in South 5.8 mph 6.9 mph 62% 0.00 in 199.00 W/m2
15:09 86.6 °F 73.0 °F 29.83 in South 6.9 mph 11.5 mph 64% 0.00 in 865.00 W/m2
15:14 87.0 °F 73.4 °F 29.83 in SSE 5.8 mph 9.2 mph 64% 0.00 in 809.00 W/m2
15:20 87.1 °F 72.5 °F 29.83 in South 3.4 mph 9.2 mph 62% 0.00 in 856.00 W/m2
15:25 86.6 °F 72.5 °F 29.83 in South 8.1 mph 10.3 mph 63% 0.00 in 893.00 W/m2
15:30 86.1 °F 72.5 °F 29.83 in SSE 4.6 mph 8.1 mph 64% 0.00 in 485.00 W/m2
15:35 85.6 °F 72.0 °F 29.83 in SW 5.8 mph 9.2 mph 64% 0.00 in 483.00 W/m2
15:40 85.7 °F 73.5 °F 29.84 in South 1.1 mph 9.2 mph 67% 0.00 in 367.00 W/m2
15:45 85.4 °F 72.3 °F 29.84 in SSW 1.1 mph 5.8 mph 65% 0.00 in 318.00 W/m2
15:50 85.4 °F 72.8 °F 29.84 in SSW 4.6 mph 6.9 mph 66% 0.00 in 332.00 W/m2
15:55 85.0 °F 71.5 °F 29.85 in SSW 3.4 mph 6.9 mph 64% 0.00 in 316.00 W/m2
16:00 84.0 °F 71.4 °F 29.86 in NNW 6.9 mph 32.2 mph 66% 0.00 in 81.00 W/m2
peotoneweather.com
Compliments of Weather Underground - 1.25 mb